Location: Edmonton
(53.5500°N, 113.5000°W)
Time: 03:58:48
(UTC-06:00)

Daily predictions for brighter satellites

Satellite Brightness Start Highest point End
(mag) Time Altitude Azimuth Time Altitude Azimuth Time Altitude Azimuth
Cosmos 1953 4.2 00:04:38 21° ENE 00:04:38 21° ENE 00:06:48 10° NE
Cosmos 2219 Rocket 4.3 00:05:32 12° E 00:05:32 12° E 00:06:41 10° ENE
Cosmos 1441 Rocket 3.5 00:01:06 10° NNW 00:04:48 65° WNW 00:04:48 65° WNW
Spot 4 4.4 00:08:05 42° SW 00:08:57 47° W 00:13:36 10° NNW
Meteor 1-24 Rocket 3.9 00:03:28 10° NNW 00:09:31 75° W 00:11:08 50° S
H-2A R/B 3.3 00:10:08 26° SW 00:11:42 31° W 00:16:05 10° NNW
Cosmos 2322 Rocket 2.2 00:11:36 35° SW 00:14:03 79° WNW 00:19:44 10° NNE
ALOS 2 3.2 00:15:26 45° ENE 00:15:28 45° ENE 00:19:40 10° N
Cosmos 2322 4.0 00:15:53 48° ESE 00:15:53 48° ESE 00:21:13 10° NE
CZ-4B R/B 3.2 00:19:45 27° NE 00:19:45 27° NE 00:22:15 10° N
Cosmos 2333 Rocket 4.3 00:21:46 13° E 00:21:46 13° E 00:23:32 10° ENE
Cosmos 2237 Rocket 4.4 00:23:22 11° E 00:23:22 11° E 00:24:24 10° ENE
Cosmos-2242 4.2 00:25:13 32° ENE 00:25:13 32° ENE 00:28:13 10° NNE
Cosmos 1408 Rocket 3.5 00:20:32 10° NNW 00:24:55 82° NW 00:24:55 82° NW
GEOS 3 Rocket 3.5 00:20:07 10° NE 00:25:17 86° NW 00:27:04 42° SW
Cosmos 1891 Rocket 4.4 00:25:29 55° S 00:27:01 82° E 00:33:30 10° NNE
Cosmos 1766 4.0 00:28:34 49° NNE 00:28:34 49° NNE 00:31:31 10° NNE
Cosmos 1743 Rocket 4.0 00:23:14 10° N 00:27:23 55° ENE 00:27:23 55° ENE
Cosmos 921 Rocket 3.1 00:27:41 10° NNW 00:31:52 75° N 00:31:52 75° N
Cosmos 1538 Rocket 3.9 00:34:42 75° SSE 00:35:01 78° ESE 00:40:26 10° NNE
COSMOS 2428 3.5 00:37:04 36° E 00:37:04 36° E 00:41:36 10° NE
Meteor 2-12 Rocket 4.3 00:37:02 62° SSE 00:37:59 73° E 00:44:08 10° NNE
Cosmos 2056 Rocket 4.1 00:33:46 10° NNW 00:38:53 48° NE 00:39:52 43° E
Spot 2 4.3 00:38:18 10° N 00:42:09 60° NW 00:42:09 60° NW
Cosmos 1371 Rocket 4.1 00:39:58 10° NNW 00:45:09 64° ENE 00:45:37 61° E
Meteor 1-21 Rocket 4.1 00:44:02 10° NNW 00:49:56 83° WSW 00:50:39 69° S
Cosmos 2278 Rocket 2.4 00:44:30 10° NNW 00:50:11 65° NE 00:51:12 55° ESE
Cosmos 1076 Rocket 4.3 00:46:35 10° NNW 00:50:13 42° WNW 00:50:13 42° WNW
Cosmos 1674 3.8 00:48:08 10° N 00:50:49 40° NNE 00:50:49 40° NNE
Cosmos 1655 Rocket 4.3 00:46:16 10° N 00:52:33 58° ENE 00:53:51 49° ESE
Cosmos 2237 4.4 00:55:24 53° ESE 00:55:24 53° ESE 01:00:43 10° NE
ATLAS 3B R/B 4.1 00:56:06 24° ESE 00:56:06 24° ESE 01:01:25 10° ENE
Cosmos 1766 Rocket 4.3 00:53:36 10° NNW 00:57:36 45° W 00:57:36 45° W
Cosmos 773 Rocket 3.9 00:58:22 76° ESE 00:58:22 76° ESE 01:03:36 10° NNE
UNK 4.0 00:50:28 10° W 01:01:00 55° SW 01:01:00 55° SW
Cosmos 2151 3.8 00:57:44 10° N 01:01:19 43° NE 01:01:19 43° NE
Cosmos 2034 Rocket 4.3 01:07:00 45° SW 01:08:38 58° WNW 01:14:46 10° N
SL-16 R/B 3.3 01:06:25 18° WSW 01:10:13 41° NW 01:15:36 10° NNE
Cosmos 1624 Rocket 3.9 01:07:03 10° NNW 01:12:25 83° ENE 01:12:34 82° ESE
Cosmos 304 Rocket 3.8 01:14:13 76° NNE 01:14:13 76° NNE 01:18:39 10° NNE
Cosmos 1844 3.7 01:08:52 10° NW 01:14:32 65° WSW 01:14:37 65° WSW
Cosmos 1844 Rocket 3.0 01:11:31 10° NW 01:16:45 50° WSW 01:16:45 50° WSW
Cosmos 1092 Rocket 4.2 01:12:00 10° NNW 01:18:14 60° W 01:19:17 53° SW
CZ-2C R/B 3.2 01:14:15 10° NNE 01:19:35 46° E 01:19:40 46° E
CZ-2C R/B 3.1 01:20:08 60° ENE 01:20:16 60° ENE 01:25:13 10° N
CZ-3A R/B 4.3 01:21:47 34° SE 01:21:47 34° SE 01:25:24 10° ENE
Lacrosse 4 Rocket 2.1 01:22:22 54° NE 01:22:22 54° NE 01:25:52 10° NE
Cosmos 1634 Rocket 3.9 01:25:04 67° S 01:26:01 85° E 01:32:22 10° NNE
Cosmos 2360 Rocket 2.5 01:24:57 47° WSW 01:26:19 62° NW 01:31:59 10° NNE
Cosmos 1842 Rocket 4.0 01:32:14 60° NNE 01:32:14 60° NNE 01:35:52 10° NNE
Cosmos 2369 Rocket 4.4 01:28:32 10° NNW 01:32:56 23° NNE 01:37:19 10° E
CZ-4C R/B 4.5 01:33:52 11° E 01:33:52 11° E 01:35:00 10° E
Cosmos 2112 Rocket 3.9 01:36:02 81° E 01:36:02 81° E 01:41:21 10° NNE
Exosat Rocket 4.4 01:31:49 10° NNW 01:36:38 45° NE 01:38:29 33° E
Cosmos 1470 3.7 01:39:32 47° NNE 01:39:32 47° NNE 01:42:26 10° NNE
Cosmos 1900 4.3 01:38:36 78° NW 01:38:36 78° NW 01:43:35 10° NE
Cosmos 1452 Rocket 3.7 01:33:44 10° NNW 01:39:00 62° ENE 01:39:37 58° E
Cosmos 1953 3.5 01:40:24 38° NW 01:40:24 38° NW 01:43:39 10° N
USA 81 4.3 01:40:06 56° E 01:40:13 56° E 01:45:24 10° NNE
Meteor 1-11 4.1 01:36:25 10° NNW 01:42:13 82° ENE 01:42:49 72° SE
ATLAS CENTAUR R/B 3.4 01:38:13 10° NW 01:42:23 30° NNE 01:46:09 11° E
Cosmos 2279 Rocket 3.9 01:42:41 63° SE 01:43:30 72° E 01:49:42 10° NNE
Cosmos 292 Rocket 4.3 01:47:12 49° ENE 01:47:12 49° ENE 01:51:09 10° NNE
Cosmos 2219 Rocket 2.2 01:47:15 64° ESE 01:47:15 64° ESE 01:52:47 10° NE
Cosmos 1666 Rocket 4.1 01:46:09 10° N 01:49:57 54° NE 01:49:57 54° NE
Cosmos 1680 Rocket 3.5 01:51:15 69° W 01:51:35 72° WNW 01:56:56 10° NNE
CZ-4B R/B 3.8 01:53:29 20° NW 01:53:29 20° NW 01:55:03 10° NW
ALOS 2 4.2 01:52:50 25° WNW 01:52:50 25° WNW 01:55:43 10° NW
Cosmos 1633 Rocket 3.6 01:50:47 10° N 01:54:52 53° ENE 01:54:52 53° ENE
Cosmos 2180 Rocket 4.4 01:55:03 63° SSE 01:55:59 74° E 02:02:11 10° NNE
H-2A R/B 3.1 01:53:10 10° N 01:56:35 50° NNW 01:56:35 50° NNW
Cosmos 1626 3.8 01:54:33 10° N 01:57:26 30° NE 01:57:26 30° NE
SL-14 R/B 4.3 01:54:34 10° NNW 01:57:15 43° NNW 01:57:15 43° NNW
Cosmos 2266 Rocket 4.1 01:52:36 10° N 01:59:00 70° ENE 02:00:29 53° SE
Cosmos 2322 Rocket 4.2 01:54:28 10° W 01:59:01 24° NNW 02:03:36 10° NNE
SL-16 R/B 3.4 02:00:59 29° ESE 02:01:06 29° ESE 02:05:57 10° NE
Cosmos-2242 4.4 02:02:05 29° WNW 02:02:05 29° WNW 02:05:44 10° N
Cosmos 2297 3.5 01:56:22 10° NNW 02:02:08 79° WSW 02:02:25 77° SSW
COSMOS 2455 3.0 02:02:12 57° SE 02:02:23 57° ESE 02:08:18 10° NE
Cosmos 2333 4.2 02:02:07 64° WSW 02:02:56 76° NW 02:08:45 10° NNE
Cosmos 2333 Rocket 2.2 02:03:46 66° SE 02:04:01 66° ESE 02:09:46 10° NE
Cosmos 2221 2.9 02:05:30 60° NE 02:05:30 60° NE 02:09:17 10° NNE
Cosmos 2237 Rocket 2.3 02:05:11 60° ESE 02:05:21 60° ESE 02:10:58 10° NE
Sich 1 3.3 02:01:33 10° N 02:05:32 66° NNE 02:05:32 66° NNE
Cosmos 1818 3.7 02:02:48 10° NW 02:07:37 58° W 02:07:37 58° W
Cosmos 1470 Rocket 4.5 02:05:10 10° N 02:09:24 41° ENE 02:09:35 41° ENE
Cosmos 2026 Rocket 4.4 02:03:48 10° NNW 02:09:35 44° W 02:10:13 43° WSW
Cosmos 1980 3.6 02:09:49 67° SE 02:10:03 68° ESE 02:15:41 10° NE
Timation 1 Rocket 4.2 02:11:35 10° NW 02:17:37 86° WSW 02:18:33 65° SSE
COSMOS 2428 3.3 02:19:03 41° W 02:20:33 52° NW 02:26:09 10° NNE
Cosmos 2058 4.1 02:20:56 10° NNW 02:23:47 34° NW 02:23:47 34° NW
Helios 1A Rocket 3.6 02:24:44 10° N 02:28:09 48° NW 02:28:09 48° NW
Meteor 2-1 Rocket 4.0 02:30:04 72° S 02:30:40 88° E 02:36:18 10° NNE
Meteor 1-16 Rocket 4.1 02:31:16 67° SW 02:31:53 74° WNW 02:37:23 10° N
Cosmos 1420 Rocket 3.8 02:27:18 10° NNW 02:32:33 89° ENE 02:33:00 76° SSE
Meteor 2-20 Rocket 4.5 02:27:15 10° NNW 02:33:19 61° W 02:34:06 56° SW
Cosmos 2278 Rocket 3.4 02:29:07 10° NW 02:33:01 27° W 02:33:01 27° W
PSLV R/B 4.4 02:29:18 10° NNE 02:33:55 46° E 02:34:11 45° ESE
NOSS 0 Rocket 3.9 02:40:14 56° SW 02:41:36 80° NW 02:47:50 10° NNE
ATLAS 3B R/B 2.8 02:43:21 49° SSW 02:45:38 77° SE 02:52:57 10° NE
BREEZE-M DEB (TANK) 4.3 02:35:26 10° W 02:51:45 54° SSW 02:52:41 49° S
Cosmos 1328 Rocket 3.5 02:58:44 77° E 02:58:44 77° E 03:03:03 10° NNE
CZ-2C R/B 3.6 02:54:44 10° N 02:59:49 39° WNW 03:01:11 33° W
CZ-2C R/B 4.4 03:01:12 23° W 03:01:12 23° W 03:04:33 10° NW
Lacrosse 4 Rocket 3.5 02:58:41 18° WNW 03:00:40 25° NNW 03:04:25 10° NNE
CZ-2D R/B 4.5 02:58:17 10° NE 03:01:23 16° E 03:04:28 10° ESE
Cosmos 405 3.9 03:04:11 46° NNW 03:04:11 46° NNW 03:06:52 10° N
Cosmos 1726 4.3 03:05:06 18° ESE 03:05:54 19° E 03:08:37 10° NE
Cosmos 192 4.2 03:05:26 71° SW 03:05:57 83° WNW 03:10:57 10° NNE
Cosmos 2360 Rocket 4.3 03:07:15 10° WNW 03:11:30 21° NNW 03:15:48 10° NNE
Cosmos 2228 Rocket 3.1 03:12:59 67° W 03:13:13 68° WNW 03:17:48 10° N
Cosmos 1331 Rocket 4.3 03:10:03 10° NNW 03:15:18 65° ENE 03:18:52 21° SE
Cosmos 1300 4.2 03:15:11 26° ESE 03:15:53 28° E 03:19:14 10° NNE
ARIANE 5 R/B 4.3 03:13:15 10° NE 03:17:32 25° E 03:20:44 15° SE
Cosmos 2369 Rocket 2.4 03:12:21 10° NNW 03:17:58 71° NE 03:23:07 12° SE
Cosmos 1867 3.7 03:18:48 52° S 03:19:52 63° SE 03:25:19 10° NE
CZ-4C R/B 2.5 03:19:03 45° S 03:20:20 54° SE 03:26:23 10° NE
NPP 4.0 03:15:10 10° NNE 03:20:31 59° ESE 03:22:18 39° SSE
Cosmos 1269 Rocket 4.1 03:20:32 52° S 03:21:45 70° ESE 03:27:02 10° NNE
ATLAS CENTAUR R/B 1.3 03:17:24 10° NW 03:22:00 84° SW 03:22:22 74° SSE
Cosmos 1515 Rocket 3.4 03:24:07 74° WSW 03:24:23 78° WNW 03:28:45 10° N
Cosmos 1437 Rocket 3.7 03:25:25 38° WNW 03:25:25 38° WNW 03:29:16 10° N
ERBS 4.0 03:26:25 26° ESE 03:26:25 26° ESE 03:28:33 10° ENE
Cosmos 1932 4.4 03:23:42 45° SW 03:25:50 87° NW 03:32:15 10° NE
Cosmos 1869 Rocket 3.9 03:21:33 10° N 03:25:58 62° ENE 03:27:26 39° SE
Cosmos 468 4.4 03:28:38 53° SSW 03:29:56 86° WNW 03:35:15 10° NNE
Cosmos 2219 Rocket 3.4 03:28:57 23° W 03:31:34 34° NW 03:36:42 10° NNE
Meteor 1-4 Rocket 3.1 03:32:40 48° ESE 03:32:44 48° E 03:36:08 10° NNE
SeaSat 1 3.7 03:28:34 10° ESE 03:33:10 41° NE 03:37:48 10° NNW
Cosmos 1626 3.9 03:30:06 10° NNW 03:32:07 22° WNW 03:32:07 22° WNW
SL-08 R/B 3.2 03:34:47 57° SW 03:35:17 60° WSW 03:39:58 10° NNW
Resurs 1-4 Rocket 3.7 03:31:26 10° NNE 03:35:57 28° E 03:39:46 13° SSE
Coronas F rocket 3.1 03:34:05 10° N 03:36:07 32° NE 03:36:07 32° NE
S3M 4.1 03:33:50 34° S 03:36:45 74° E 03:43:05 10° NNE
Cosmos 158 Rocket 4.5 03:36:20 35° SSE 03:38:00 49° ESE 03:42:48 10° NE
Cosmos 1271 Rocket 3.5 03:37:32 41° SE 03:38:25 49° E 03:42:20 10° NNE
USA 238 DEB 3.7 03:36:23 38° SW 03:39:22 80° SE 03:46:27 10° NE
USA 238 3.7 03:36:31 38° SW 03:39:28 80° SE 03:46:32 10° NE
Cosmos 1943 Rocket 3.0 03:35:04 10° NNW 03:40:39 53° NE 03:46:12 10° SE
Cosmos 2221 4.4 03:42:23 18° WNW 03:43:00 18° WNW 03:46:06 10° NNW
SL-16 R/B 2.7 03:37:14 12° SSE 03:43:01 72° ENE 03:49:13 10° NNW
Aureole 2 Rocket 3.2 03:42:35 48° W 03:43:05 51° WNW 03:47:19 10° NNE
SL-16 R/B 2.4 03:42:52 40° WSW 03:44:52 65° NW 03:50:34 10° NNE
Cosmos 1340 Rocket 2.7 03:44:15 10° NNW 03:48:16 64° W 03:48:25 63° WSW
COSMOS 2455 3.6 03:45:20 24° W 03:48:33 45° NW 03:54:22 10° NE
Cosmos 2333 Rocket 3.4 03:45:45 22° W 03:48:44 34° NW 03:54:00 10° NNE
Cosmos 1386 Rocket 4.5 03:43:01 10° N 03:49:25 89° E 03:53:33 23° S
Cosmos 2237 Rocket 3.3 03:47:00 23° W 03:49:45 36° NW 03:55:01 10° NNE
ERS-2 3.4 03:48:03 10° NNE 03:51:33 36° E 03:52:49 28° SE
AQUA 3.8 03:47:02 10° NNE 03:51:50 87° ESE 03:53:26 43° SSW
Cosmos 1110 Rocket 3.9 03:46:45 10° NNW 03:51:55 65° WSW 03:54:06 34° S
Cosmos 2263 4.2 03:46:17 10° NNW 03:52:08 89° ENE 03:57:56 10° SSE
Cosmos 1745 Rocket 4.0 03:47:12 10° NNW 03:53:33 69° W 03:56:48 30° S
NOSS 3-2 (A) 4.0 03:52:00 31° S 03:54:49 53° SE 04:01:24 10° NE
Cosmos 1709 Rocket 4.3 03:48:52 10° N 03:55:14 67° ENE 04:01:31 10° SSE
Cosmos 1553 Rocket 3.9 03:53:22 34° SSW 03:56:17 85° W 04:02:26 10° N
Cosmos 2251 Rocket 4.1 03:56:19 26° SSE 03:58:57 49° ESE 04:04:00 10° NE
CBERS-1 3.9 03:55:06 10° NNE 04:00:15 81° WNW 04:02:17 38° SSW
Abrixas rocket 3.8 04:04:06 25° SE 04:04:06 25° SE 04:05:58 10° ESE
Cosmos 1733 Rocket 4.0 03:59:55 10° N 04:04:09 46° ENE 04:08:23 10° SSE
Cosmos 1908 4.2 04:05:47 32° W 04:06:09 33° WNW 04:09:44 10° N
UNK 3.6 04:06:28 23° SSE 04:09:24 88° WSW 04:14:02 10° NNW
IRAS Rocket 4.3 04:05:57 10° NNE 04:11:39 81° ESE 04:14:53 27° SSW
NOSS 3-2 (C) 4.0 04:08:25 27° SSW 04:11:48 55° SE 04:18:27 10° NE
Meteor 1-27 4.3 04:08:40 25° S 04:12:01 74° E 04:17:37 10° NNE
BREEZE-M DEB (TANK) 3.8 04:12:38 34° S 04:12:38 34° S 04:17:19 10° SE
SL-24 R/B 4.4 04:11:11 36° SSW 04:12:51 57° W 04:17:45 10° NNW
Cosmos 1707 Rocket 3.6 04:11:45 33° S 04:13:45 83° E 04:18:16 10° NNE
ERS-1 4.5 04:08:51 10° NNE 04:13:52 77° ESE 04:16:36 27° S
Cosmos 1151 Rocket 3.7 04:15:52 34° WSW 04:16:58 40° WNW 04:21:08 10° N
UNKNOWN OBJECT B 4.2 04:13:42 10° NNE 04:17:05 32° E 04:19:46 14° SSE
ATLAS 5 CENTAUR R/B 3.7 04:15:02 13° SSE 04:18:12 24° ESE 04:22:22 10° ENE
Iridium 2 3.8 04:15:06 10° N 04:18:55 74° E 04:21:14 23° SSE
EO 1 Del DPAF 3.3 04:18:30 17° SSE 04:21:29 81° ENE 04:25:25 10° NNW
Cosmos 1607 4.1 04:18:40 26° WSW 04:22:13 64° NW 04:28:22 10° NE
IRS-1C 4.2 04:18:54 10° NNE 04:24:13 67° WNW 04:27:02 28° SW
In-Cosmos 22 Rocket 4.4 04:20:46 10° NNW 04:25:49 46° W 04:28:20 27° SSW
Cosmos 1892 2.6 04:23:35 10° NNW 04:27:27 75° W 04:29:30 26° S
Cosmos 1603 3.8 04:24:29 29° SW 04:27:32 72° NW 04:33:19 10° NNE
Meteor 2-10 4.4 04:26:58 16° S 04:31:25 68° E 04:36:44 10° NNE
USA 161 3.6 04:34:24 12° NW 04:34:24 12° NW 04:34:41 10° NW
Cosmos 494 Rocket 4.2 04:30:43 22° S 04:34:12 70° ESE 04:39:27 10° NNE
Okean O Rocket 3.4 04:31:55 10° NNE 04:35:53 30° E 04:39:49 10° SSE
ATLAS 3B R/B 3.5 04:30:36 14° W 04:36:56 49° NNW 04:43:53 10° NE
Meteor 2-3 Rocket 4.1 04:35:19 10° NNW 04:40:45 44° W 04:44:29 19° SSW
Lacrosse 4 Rocket 4.2 04:38:42 10° NW 04:40:57 13° N 04:43:14 10° NNE
Cosmos 1726 2.6 04:39:47 32° WSW 04:41:00 44° WNW 04:44:37 10° N
CZ-2D R/B 2.1 04:37:00 10° NNE 04:42:20 83° ESE 04:46:36 16° SSW
Cosmos 1302 Rocket 4.2 04:37:19 10° NW 04:42:23 48° WSW 04:47:23 10° S
Cosmos 2292 Rocket 2.8 04:40:38 10° NNW 04:43:31 51° W 04:44:29 34° SSW
Cosmos 883 Rocket 4.4 04:39:30 19° SSW 04:44:04 74° WNW 04:50:15 10° N
BREEZE-M DEB (TANK) 3.0 04:43:24 22° WSW 04:45:59 70° S 04:52:22 10° E
Spot 4 Rocket 4.2 04:42:32 10° N 04:47:37 58° WNW 04:50:55 21° SW
IRS-1D 3.5 04:42:27 10° NNE 04:47:39 78° WNW 04:51:38 18° SSW
Cosmos 1356 Rocket 4.5 04:45:50 10° NW 04:49:09 24° W 04:49:50 23° WSW
Sich 1 Rocket 3.8 04:46:26 10° N 04:50:51 74° ENE 04:55:14 10° SSE
Cosmos 1300 3.7 04:50:14 24° WSW 04:51:35 31° WNW 04:55:03 10° N
Cosmos 2285 Rocket 4.1 04:45:20 10° NNW 04:51:50 86° ENE 04:58:16 10° SSE
Cosmos 1184 Rocket 2.8 04:49:26 10° NNW 04:52:52 68° W 04:55:59 12° S
Cosmos 389 Rocket 3.6 04:51:51 10° SSE 04:55:10 42° E 04:58:32 10° NNE
ARIANE 5 R/B 2.7 04:51:54 10° N 04:57:06 64° WNW 05:01:04 17° SSW
Cosmos 1943 3.2 04:53:04 19° SSW 04:57:16 87° WNW 05:02:57 10° NNE
ADEOS 4.0 04:52:22 10° N 04:57:21 46° WNW 05:00:49 19° SW
Cosmos 2315 Rocket 4.0 04:52:36 12° SSW 04:58:22 79° W 05:04:44 10° N
Pageos (A) 3.2 04:56:18 10° N 04:58:37 64° E 05:00:25 12° SSE
ATLAS CENTAUR R/B 3.5 04:57:46 10° WNW 04:58:34 12° W 04:58:34 12° W
Cosmos 2369 Rocket 3.1 04:57:01 10° NW 05:01:31 25° WSW 05:04:45 15° SSW
ERBS 2.5 04:59:51 21° W 05:02:02 70° NNW 05:05:33 10° ENE
Cosmos 1867 4.4 04:59:27 15° W 05:03:46 42° NNW 05:09:00 10° NE
Cosmos 1455 2.2 05:01:16 15° SSW 05:04:25 80° WNW 05:08:21 10° N
CZ-4B R/B 4.1 05:01:39 10° NNE 05:06:48 47° E 05:11:54 10° S
PSLV R/B 4.4 05:03:34 10° NNE 05:07:15 53° E 05:10:58 10° S
Coronas F rocket 3.8 05:06:52 10° WNW 05:07:02 10° WNW 05:07:02 10° WNW
Meteor 1-4 Rocket 4.4 05:07:02 15° W 05:08:14 17° WNW 05:10:36 10° NNW
CZ-4C R/B 2.9 05:04:14 15° WSW 05:08:58 52° NNW 05:15:24 10° NE
SeaSat 1 2.7 05:05:58 10° S 05:10:42 46° WSW 05:15:28 10° NW
Cosmos 1271 Rocket 4.4 05:12:46 15° W 05:14:45 21° WNW 05:17:55 10° NNW
Meteor 2-11 Rocket 4.4 05:09:50 10° SSW 05:15:54 71° WNW 05:22:00 10° N
Resurs 1-4 Rocket 2.3 05:10:58 10° N 05:16:08 56° WNW 05:20:50 12° SW
USA 234 3.5 05:10:08 10° ENE 05:16:41 66° SSE 05:22:38 13° SW
Cosmos 2219 Rocket 4.5 05:14:04 10° NW 05:17:20 15° NNW 05:20:36 10° NNE
Cosmos 2242 Rocket 4.1 05:14:19 15° SW 05:17:49 45° WNW 05:22:14 10° N
Cosmos 1862 Rocket 3.5 05:18:21 10° SSW 05:22:43 72° WNW 05:27:09 10° N
Cosmos 1943 Rocket 2.7 05:19:07 10° NW 05:24:16 36° WSW 05:29:23 10° S
ERS-2 3.5 05:22:05 10° N 05:25:13 26° WNW 05:27:39 14° WSW
CZ-2C R/B 3.7 05:21:07 10° S 05:25:28 54° W 05:29:50 10° NNW
Cosmos 1408 2.6 05:22:42 10° NNW 05:26:26 67° W 05:30:09 10° S
SL-16 R/B 3.5 05:22:20 11° SW 05:27:15 26° W 05:32:23 10° NW
Okean 2 Rocket 3.4 05:23:46 10° N 05:28:17 73° ENE 05:32:47 10° SSE
SL-16 R/B 3.9 05:25:47 10° W 05:30:08 22° NNW 05:34:30 10° NNE
ADEOS II 3.6 05:25:19 10° NNE 05:30:12 37° E 05:35:03 10° SSE
USA 238 DEB 4.5 05:24:07 10° W 05:30:55 47° NNW 05:37:42 10° NE
USA 238 4.5 05:24:13 10° W 05:31:01 47° NNW 05:37:47 10° NE
Cosmos 1825 2.3 05:30:52 10° NNW 05:34:35 54° W 05:38:17 10° S
Cosmos 2333 Rocket 4.5 05:31:21 10° NW 05:34:51 16° NNW 05:38:21 10° NNE
Cosmos 2237 Rocket 4.4 05:32:07 10° NW 05:35:34 16° NNW 05:39:01 10° NNE
Okean 1-7 4.2 05:31:27 10° SSE 05:35:34 46° E 05:39:45 10° NNE
Cosmos 1992 Rocket 4.2 05:32:38 10° NW 05:37:41 50° WSW 05:42:43 10° S
Thor Agena Rocket 3.5 05:32:36 10° S 05:37:44 67° WSW 05:42:59 10° NNW
SL-27 R/B 2.7 05:35:16 10° SSW 05:38:54 72° ESE 05:42:30 10° NNE
Abrixas rocket 3.4 05:37:02 12° WSW 05:39:30 26° SSW 05:42:22 10° SE
PAYLOAD B 4.3 05:34:21 10° NNE 05:39:57 85° ESE 05:45:28 10° SSW
Cosmos 2251 Rocket 4.4 05:36:50 11° WSW 05:41:26 35° NW 05:46:16 10° NNE
Cosmos 1733 Rocket 4.2 05:38:12 10° NW 05:41:44 24° W 05:45:15 10° SW
Nadezhda 1 Rocket 4.1 05:39:10 10° S 05:45:27 88° E 05:51:53 10° N
NOSS 3-2 (A) 4.0 05:39:28 10° WSW 05:45:44 57° NNW 05:52:44 10° NE
USA 32 4.1 05:42:57 10° S 05:48:12 88° W 05:53:29 10° N
MOZ.5/SAFIR/RUBIN 5/SL-8 4.4 05:44:33 10° SSW 05:48:46 34° W 05:53:01 10° NNW
ARGOS Delta rocket 4.0 05:44:40 10° N 05:48:58 48° WNW 05:53:11 10° SW
ADEOS Rocket 4.1 05:41:52 10° NNE 05:49:30 66° ESE 05:57:14 10° S
Cosmos 1862 3.9 05:45:54 10° NNW 05:49:35 36° W 05:53:14 10° SSW
IRS-1C Rocket 4.1 05:44:20 10° NNE 05:49:35 70° WNW 05:54:50 10° SSW
Cosmos 1782 Rocket 3.6 05:45:59 10° NNW 05:50:18 60° W 05:54:34 10° S
UNKNOWN OBJECT B 3.8 05:48:24 10° N 05:51:36 28° WNW 05:54:47 10° SW
Aureole 3 Rocket 3.7 05:47:04 10° S 05:53:27 83° E 05:57:58 10° NNE
Cosmos 1656 Rocket 4.0 05:50:27 10° NW 05:55:30 40° WSW 06:00:30 10° S
CENTAUR R/B 2.9 05:55:05 10° SW 06:01:25 75° SE 06:08:37 10° NE
NOSS 3-2 (C) 4.1 05:56:31 10° WSW 06:02:50 56° NNW 06:09:50 10° NE
